Regional Weather Roundup
Issued by NWS

Home | Current Version | Previous Version | Graphics & Text | Print | Product List | Glossary On
Versions: 1 2 3 4 5 6 7 8 9 10 11 12 13 14 15 16 17 18 19 20 21 22 23 24 25 26 27 28 29 30 31 32 33 34 35 36 37 38 39 40 41 42 43 44 45 46 47 48 49 50
000
ASUS43 KMPX 211001
RWRMN
WEATHER ROUNDUP FOR MINNESOTA
NATIONAL WEATHER SERVICE TWIN CITIES/CHANHASSEN MN
500 AM CDT MON MAY 21 2018


NOTE: "FAIR" INDICATES FEW OR NO CLOUDS BELOW 12,000 FEET WITH NO
SIGNIFICANT WEATHER AND/OR OBSTRUCTIONS TO VISIBILITY. N/A MEANS
CURRENT SKY AND/OR WEATHER CONDITIONS ARE NOT AVAILABLE.

MNZ060>063-068>070-211100-
   Twin Cities Metro

CITY           SKY/WX    TMP DP  RH WIND       PRES   REMARKS
TWIN CITIES    CLOUDY    60  50  69 SE8       30.12F
ST PAUL        CLOUDY    59  47  64 E6        30.13S
CRYSTAL        CLOUDY    60  44  55 SE8       30.11F
BLAINE         MOCLDY    57  48  72 E5        30.12F
LAKEVILLE      CLOUDY    55  50  82 E6        30.11F
EDEN PRAIRIE   CLOUDY    60  48  64 E7        30.11S
SOUTH ST PAUL  CLOUDY    60  48  64 SE3       30.12F
LAKE ELMO      MOCLDY    57  46  67 E5        30.14F
$$
MNZ001>005-007-008-013>017-022>024-027-028-211100-
   Northwest Minnesota

CITY           SKY/WX    TMP DP  RH WIND       PRES   REMARKS
BEMIDJI        FAIR      35  33  89 CALM      30.14S
HALLOCK        FAIR      48  36  61 SE8       30.09F
ROSEAU         FAIR      46  37  71 CALM      30.11F
WARROAD        FAIR      48  37  66 S3        30.12S
THIEF RVR FALL FAIR      49  34  56 SE3       30.12F
CROOKSTON      FAIR      46  37  71 SE7       30.11S
FOSSTON        FAIR      43  30  61 CALM      30.13S
DETROIT LAKES  FAIR      48  36  61 CALM      30.12F
MOORHEAD       FAIR      48  34  57 E5        30.10S
PARK RAPIDS    FAIR      40  35  83 CALM      30.13S
MAHNOMEN       FAIR      49  36  59 SE6       30.11F
$$
MNZ006-009>011-018-025>026-211100-
   North Central Minnesota

CITY           SKY/WX    TMP DP  RH WIND       PRES   REMARKS
BAUDETTE       FAIR      44  39  82 CALM      30.13S
FLAG ISLAND    FAIR      52  37  58 S5        30.10F
INTL FALLS     FAIR      36  35  96 CALM      30.14S
WASKISH        FAIR      36  32  87 CALM      30.14S
BIG FORK       FAIR      34  34 100 CALM      30.16S
LONGVILLE      FAIR      37  36  93 CALM      30.14F
GRAND RAPIDS   FAIR      37  33  85 CALM      30.17F
CRANE LAKE     FAIR      34  32  93 CALM      30.18S
ORR            FAIR      41  32  70 CALM      30.14F
COOK           FAIR      34  32  93 CALM      30.17F
WALKER         FAIR      36  35  95 CALM      30.14F
$$
MNZ012-019>021-037-211100-
   Northeast Minnesota

CITY           SKY/WX    TMP DP  RH WIND       PRES   REMARKS
DULUTH         FAIR      41  32  70 CALM      30.17S
ELY            FAIR      36  32  87 CALM      30.17F
HIBBING        FAIR      31  30  96 CALM      30.16F FOG
EVELETH        FAIR      32  32 100 CALM      30.18S
DULUTH HARBOR  FAIR      45  43  93 CALM      30.18S
TWO HARBORS    FAIR      37  30  75 CALM      30.15F
SILVER BAY     FAIR      34  32  93 CALM      30.16S
GRAND MARAIS     N/A     39  33  79 CALM      30.17R
G MARAIS ARPRT FAIR      41  28  60 CALM      30.19S
$$
MNZ029>031-032-039>041-046>048-054>057-064-211100-
   West Central Minnesota

CITY           SKY/WX    TMP DP  RH WIND       PRES   REMARKS
FERGUS FALLS   FAIR      54  36  50 E3        30.06F
WHEATON        CLOUDY    52  36  54 E6        30.09F
MORRIS         CLOUDY    55  41  58 E3        30.08F
ALEXANDRIA     CLOUDY    56  35  45 E7        30.11F
ELBOW LAKE     MOCLDY    55  37  51 SE9       30.10F
WADENA         FAIR      45  36  70 CALM      30.12S
GLENWOOD       FAIR      54  36  50 E5        30.10F
APPLETON       MOCLDY    57  39  51 E7        30.07F
BENSON         CLOUDY    57  37  47 SE5       30.10F
ORTONVILLE     CLOUDY    57  41  54 E6        30.07F
MADISON        CLOUDY    61  52  72 E5        30.07S
WILLMAR        MOCLDY    54  48  82 E6        30.12S
$$
MNZ033>034-036-042>043-049>051-058-059-211100-
   Central Minnesota

CITY           SKY/WX    TMP DP  RH WIND       PRES   REMARKS
ST CLOUD       CLOUDY    53  36  52 E5        30.12F
SAUK CENTRE    CLOUDY    53  34  49 CALM      30.11F
PAYNESVILLE    CLOUDY    55  43  64 E3        30.11S
AITKIN         FAIR      34  30  86 CALM      30.14S
PINE RIVER     FAIR      36  32  87 CALM      30.17S
BRAINERD       FAIR      46  37  71 CALM      30.14F
STAPLES        FAIR      43  37  81 CALM      30.12F
LONG PRAIRIE   CLOUDY    50  36  57 CALM      30.12F
LITTLE FALLS   FAIR      50  34  53 E3        30.13S
LITCHFIELD     RAIN      55  52  88 E5        30.11S
BUFFALO        CLOUDY    58  42  56 CALM      30.12F
MAPLE LAKE     CLOUDY    58  45  61 E3        30.12F
HUTCHINSON     LGT RAIN  56  53  90 E6        30.12S
$$
MNZ037-044-045-052-053-211100-
   East Central Minnesota

CITY           SKY/WX    TMP DP  RH WIND       PRES   REMARKS
PRINCETON      CLOUDY    52  41  66 CALM      30.13F
MORA           FAIR      41  36  81 CALM      30.17S
CAMBRIDGE      FAIR      52  39  62 CALM      30.14F
RUSH CITY      FAIR      44  37  76 CALM      30.15F
MOOSE LAKE     FAIR      36  34  93 CALM      30.15S
HINCKLEY       FAIR      37  36  93 CALM      30.16S
CLOQUET        FAIR      36  30  80 CALM      30.16F
MCGREGOR       FAIR      36  32  87 CALM      30.16S
$$
MNZ071>073-080-081-089-090-097-098-211100-
   Southwest Minnesota

CITY           SKY/WX    TMP DP  RH WIND       PRES   REMARKS
MONTEVIDEO     CLOUDY    57  46  67 SE7       30.08F
GRANITE FALLS  CLOUDY    58  56  91 E7        30.09F
CANBY          CLOUDY    59  55  85 E7        30.08R
MARSHALL       LGT RAIN  56  55  97 SE9       30.07F
REDWOOD FALLS  LGT RAIN  56  56 100 E5        30.08S
OLIVIA         LGT RAIN  55  54  94 E7        30.08S
PIPESTONE      CLOUDY    55  54  94 E5        30.06S FOG
WINDOM         RAIN      55  39  54 E7        30.07S
WORTHINGTON    LGT RAIN  54  53  97 E9        30.07F FOG
JACKSON        CLOUDY    54  54 100 E9        30.08S FOG
TRACY          RAIN      56  56 100 E6        30.07F
SLAYTON        CLOUDY    54  54  98 E6        30.08F FOG
$$
MNZ065>067-074>077-082>085-091>093-211100-
   South Central Minnesota

CITY           SKY/WX    TMP DP  RH WIND       PRES   REMARKS
MANKATO        CLOUDY    57  53  86 SE10      30.09F
NEW ULM        HVY RAIN  55  54  94 SE5       30.08F
ST JAMES       LGT RAIN  55  52  88 E7        30.09F
FAIRMONT       LGT RAIN  55  53  93 SE8       30.09S
GLENCOE        DRIZZLE   58  54  86 E5        30.10F
FARIBAULT      CLOUDY    57  52  82 CALM      30.11F
OWATONNA       MOCLDY    57  52  82 E10       30.10F
WASECA         LGT RAIN  55  52  88 E8        30.11S
ALBERT LEA     DRIZZLE   55  52  88 SE5       30.09S
$$
MNZ078>079-086>088-094>096-211100-
   Southeast Minnesota

CITY           SKY/WX    TMP DP  RH WIND       PRES   REMARKS
ROCHESTER      CLOUDY    55  51  86 E10       30.12F
RED WING       CLOUDY    61  45  55 E6        30.11F
STANTON        CLOUDY    58  51  76 E5        30.10F
DODGE CENTER   CLOUDY    55  50  82 E9        30.11F
WINONA         CLOUDY    55  48  76 SE7       30.11F
AUSTIN         CLOUDY    55  52  88 E7        30.09F
PRESTON        CLOUDY    54  50  86 E7        30.12S
$$
ABBREVIATIONS USED IN REMARKS
   TC - TEMPERATURES IN CELSIUS
  WCI - WIND CHILL INDEX
   HX - HEAT INDEX
  VSB - VISIBILITY
$$




USA.gov is the U.S. government's official web portal to all federal, state and local government web resources and services.